Погода в Ходжаабаде

Узбекистан     40°39′55″N   72°33′59″E
темп.,
°C
ветер,
м/с
пор.,
м/с
влажн.,
%
обл.,
%
осадки,
мм/ч
давл.,
гПа
погр.,
м
7 июля, чт
чт723:00+24ююз22260 0.0 100617
02:00+22вюв32290 0.0 100817
05:00+21вюв33320 0.0 101039
08:00+30зюз691887 0.0 10111605
11:00+31з571687 0.0 10112022
14:00+35зсз55149 0.0 10093169
17:00+35з341317 0.0 10073296
20:00+28зюз482162 0.0 1008130
8 июля, пт
пт823:00+23вюв22286 0.0 100915
02:00+22вюв22321 0.0 100916
05:00+20в33350 0.0 101031
08:00+28в21210 0.0 1009480
11:00+33з43160 0.0 10061714
14:00+37з44130 0.0 10042501
17:00+37зюз45120 0.0 10022817
20:00+29зюз45195 0.0 100367
9 июля, сб
сб923:00+24ю222546 0.0 100417
02:00+22вюв32296 0.0 100517
05:00+22вюв322991 0.0 100522
08:00+30ссв22172 0.0 1006906
11:00+34зюз56132 0.0 10041925
14:00+37зюз56110 0.0 10012563
17:00+37зюз5685 0.0 10003081
20:00+29зюз4614100 0.0 1001108
10 июля, вс
вс1023:00+24юв222092 0.0 100216
02:00+22вюв33245 0.0 100320
05:00+20вюв33271 0.0 100427
08:00+30зюз35162 0.0 1004995
11:00+34з43130 0.0 10021756
14:00+38з44100 0.0 9992473
17:00+38зюз4590 0.0 9983294
20:00+30юз33141 0.0 99915
11 июля, пн
пн1123:00+25юв11216 0.0 100115
02:00+23вюв33245 0.0 100222
05:00+22вюв33264 0.0 100331
08:00+31юз14140 0.0 10031112
11:00+36зюз7790 0.0 10011902
14:00+39з6690 0.0 9993285
17:00+38зюз8890 0.0 9993510
20:00+32юз814142 0.0 1000572